Location: Charbonni�res
(45.9952°N, 2.9982°E)
Time: 18:15:32
(UTC+00:00)

Meteor 1-26 Rocket - Pass Details

Date: 29 November 2020
Orbit: 807 x 928 km, 81.3° (Epoch: 22 January)

Event Time Altitude Azimuth Distance (km) Brightness Sun altitude
Exits shadow 04:49:24 18° 345° (NNW) 2,016 5.9 -23.3°
Maximum altitude 04:53:45 75° 262° (W) 896 4.1 -22.6°
Drops below altitude 10° 04:59:18 10° 178° (S) 2,456 6.7 -21.6°
Sets 05:01:40 0° 177° (S) 3,370 7.5 -21.2°
